Location: ČR
(50.0000°N, 15.0000°E)
Time: 15:38:21
(UTC+01:00)

Courier 1B - Pass Details

Date: 19 February 2026
Orbit: 962 x 1208 km, 28.3° (Epoch: 16 March)

Event Time Altitude Azimuth Distance (km) Brightness Sun altitude
Rises 22:48:20 0° 240° (WSW) 4,020 - -47.2°
Reaches altitude 10° 22:55:21 10° 196° (SSW) 3,113 - -47.8°
Maximum altitude 22:55:34 10° 195° (SSW) 3,113 - -47.8°
Drops below altitude 10° 22:55:44 10° 193° (SSW) 3,114 - -47.8°
Sets 23:02:57 0° 150° (SSE) 4,100 - -48.4°
